| time (UTC) | temp F | wind direction | speed MPH | gust MPH | rain 1hr in | rain 24hr in | rain mn in | humidity % | barometer mb |
| 20260502130259 | 52 | 79 | 4.0 | 11.0 | 0.00 | 0.00 | 0.00 | 60 | 1017.6 |
| 20260502123759 | 51 | 46 | 11.0 | 14.0 | 0.00 | 0.00 | 0.00 | 61 | 1017.6 |
| 20260502123259 | 51 | 46 | 12.0 | 15.0 | 0.00 | 0.00 | 0.00 | 61 | 1017.6 |
| 20260502122800 | 50 | 40 | 14.0 | 16.0 | 0.00 | 0.00 | 0.00 | 62 | 1017.6 |
| 20260502122259 | 50 | 97 | 6.0 | 16.0 | 0.00 | 0.00 | 0.00 | 62 | 1017.2 |
| 20260502121800 | 50 | 71 | 7.0 | 15.0 | 0.00 | 0.00 | 0.00 | 62 | 1017.2 |
| 20260502121259 | 50 | 60 | 9.0 | 15.0 | 0.00 | 0.00 | 0.00 | 62 | 1017.2 |
| 20260502120800 | 50 | 68 | 9.0 | 15.0 | 0.00 | 0.00 | 0.00 | 62 | 1017.2 |
| 20260502120300 | 50 | 52 | 9.0 | 14.0 | 0.00 | 0.00 | 0.00 | 62 | 1017.2 |
| 20260502115800 | 50 | 44 | 4.0 | 14.0 | 0.00 | 0.00 | 0.00 | 63 | 1017.2 |
| 20260502115300 | 50 | 87 | 4.0 | 13.0 | 0.00 | 0.00 | 0.00 | 63 | 1017.2 |
| 20260502114800 | 49 | 59 | 7.0 | 13.0 | 0.00 | 0.00 | 0.00 | 63 | 1017.2 |
| 20260502114300 | 49 | 70 | 6.0 | 13.0 | 0.00 | 0.00 | 0.00 | 62 | 1016.8 |
| 20260502113800 | 49 | 50 | 11.0 | 13.0 | 0.00 | 0.00 | 0.00 | 62 | 1016.8 |
| 20260502113300 | 49 | 54 | 8.0 | 13.0 | 0.00 | 0.00 | 0.00 | 62 | 1016.8 |
| 20260502112800 | 49 | 38 | 9.0 | 13.0 | 0.00 | 0.00 | 0.00 | 62 | 1016.5 |
| 20260502112259 | 49 | 59 | 3.0 | 13.0 | 0.00 | 0.00 | 0.00 | 62 | 1016.5 |
| 20260502111800 | 49 | 3 | 3.0 | 15.0 | 0.00 | 0.00 | 0.00 | 62 | 1016.5 |
| 20260502111300 | 49 | 51 | 14.0 | 15.0 | 0.00 | 0.00 | 0.00 | 62 | 1016.5 |
| 20260502110800 | 49 | 95 | 7.0 | 14.0 | 0.00 | 0.00 | 0.00 | 62 | 1016.1 |
| 20260502110300 | 50 | 47 | 9.0 | 14.0 | 0.00 | 0.00 | 0.00 | 62 | 1016.1 |
| 20260502105759 | 50 | 78 | 6.0 | 14.0 | 0.00 | 0.00 | 0.00 | 62 | 1016.1 |
| 20260502105259 | 50 | 57 | 8.0 | 14.0 | 0.00 | 0.00 | 0.00 | 61 | 1016.1 |
| 20260502104800 | 50 | 63 | 9.0 | 14.0 | 0.00 | 0.00 | 0.00 | 62 | 1015.8 |
| 20260502104259 | 50 | 61 | 7.0 | 12.0 | 0.00 | 0.00 | 0.00 | 62 | 1016.1 |
| 20260502103800 | 50 | 48 | 8.0 | 13.0 | 0.00 | 0.00 | 0.00 | 62 | 1016.1 |
| 20260502103300 | 50 | 38 | 6.0 | 13.0 | 0.00 | 0.00 | 0.00 | 62 | 1016.1 |
| 20260502102759 | 50 | 73 | 7.0 | 12.0 | 0.00 | 0.00 | 0.00 | 62 | 1016.1 |
| 20260502102259 | 50 | 34 | 8.0 | 12.0 | 0.00 | 0.00 | 0.00 | 62 | 1016.1 |
| 20260502101759 | 50 | 41 | 7.0 | 14.0 | 0.00 | 0.00 | 0.00 | 62 | 1015.8 |
| 20260502101300 | 50 | 43 | 6.0 | 14.0 | 0.00 | 0.00 | 0.00 | 62 | 1015.8 |
| 20260502100800 | 50 | 34 | 4.0 | 11.0 | 0.00 | 0.00 | 0.00 | 62 | 1016.1 |
| 20260502100259 | 50 | 29 | 9.0 | 13.0 | 0.00 | 0.00 | 0.00 | 61 | 1015.8 |
| 20260502091300 | 51 | 69 | 4.0 | 11.0 | 0.00 | 0.00 | 0.00 | 58 | 1016.1 |
| 20260502090800 | 51 | 65 | 4.0 | 11.0 | 0.00 | 0.00 | 0.00 | 58 | 1016.1 |
| 20260502090300 | 51 | 68 | 5.0 | 12.0 | 0.00 | 0.00 | 0.00 | 58 | 1016.5 |
| 20260502071259 | 53 | 68 | 5.0 | 15.0 | 0.00 | 0.00 | 0.00 | 54 | 1015.8 |
| 20260502070759 | 53 | 65 | 9.0 | 17.0 | 0.00 | 0.00 | 0.00 | 54 | 1016.5 |
| 20260502070259 | 53 | 47 | 11.0 | 17.0 | 0.00 | 0.00 | 0.00 | 53 | 1016.1 |
| 20260502065800 | 53 | 38 | 7.0 | 13.0 | 0.00 | 0.00 | 0.00 | 53 | 1016.5 |
| 20260502065300 | 53 | 44 | 8.0 | 14.0 | 0.00 | 0.00 | 0.00 | 53 | 1016.5 |
| 20260502064800 | 53 | 86 | 5.0 | 15.0 | 0.00 | 0.00 | 0.00 | 53 | 1016.5 |
| 20260502064300 | 53 | 59 | 9.0 | 15.0 | 0.00 | 0.00 | 0.00 | 52 | 1016.8 |
| 20260502063800 | 53 | 68 | 12.0 | 15.0 | 0.00 | 0.00 | 0.00 | 53 | 1016.8 |
| 20260502063300 | 53 | 58 | 6.0 | 15.0 | 0.00 | 0.00 | 0.00 | 53 | 1016.8 |
| 20260502062800 | 53 | 61 | 6.0 | 11.0 | 0.00 | 0.00 | 0.00 | 53 | 1017.2 |
| 20260502062259 | 53 | 77 | 9.0 | 12.0 | 0.00 | 0.00 | 0.00 | 52 | 1017.6 |
| 20260502061759 | 53 | 83 | 6.0 | 15.0 | 0.00 | 0.00 | 0.00 | 52 | 1017.2 |
| 20260502061300 | 53 | 69 | 3.0 | 15.0 | 0.00 | 0.00 | 0.00 | 52 | 1017.2 |
| 20260502060800 | 53 | 57 | 6.0 | 13.0 | 0.00 | 0.00 | 0.00 | 53 | 1017.2 |
| 20260502060300 | 54 | 67 | 7.0 | 13.0 | 0.00 | 0.00 | 0.00 | 52 | 1017.2 |
| 20260502055759 | 54 | 70 | 7.0 | 13.0 | 0.00 | 0.00 | 0.00 | 53 | 1017.2 |
| 20260502055259 | 54 | 70 | 5.0 | 13.0 | 0.00 | 0.00 | 0.00 | 53 | 1017.2 |
| 20260502054759 | 54 | 64 | 5.0 | 13.0 | 0.00 | 0.00 | 0.00 | 53 | 1017.2 |
| 20260502054259 | 54 | 76 | 4.0 | 11.0 | 0.00 | 0.00 | 0.00 | 53 | 1017.2 |
| 20260502053759 | 54 | 65 | 8.0 | 11.0 | 0.00 | 0.00 | 0.00 | 54 | 1017.2 |
| 20260502053259 | 54 | 44 | 2.0 | 11.0 | 0.00 | 0.00 | 0.00 | 54 | 1017.2 |
| 20260502052800 | 54 | 60 | 4.0 | 12.0 | 0.00 | 0.00 | 0.00 | 54 | 1016.8 |
| 20260502052300 | 54 | 51 | 10.0 | 12.0 | 0.00 | 0.00 | 0.00 | 55 | 1016.5 |
| 20260502051759 | 54 | 47 | 7.0 | 12.0 | 0.00 | 0.00 | 0.00 | 55 | 1016.8 |
| 20260502051259 | 54 | 83 | 4.0 | 13.0 | 0.00 | 0.00 | 0.00 | 55 | 1016.8 |
| 20260502050759 | 54 | 36 | 6.0 | 13.0 | 0.00 | 0.00 | 0.00 | 55 | 1016.5 |
| 20260502050259 | 54 | 62 | 4.0 | 15.0 | 0.00 | 0.00 | 0.00 | 56 | 1016.5 |
| 20260502045800 | 54 | 57 | 7.0 | 15.0 | 0.00 | 0.00 | 0.00 | 55 | 1016.5 |
| 20260502045259 | 54 | 50 | 9.0 | 14.0 | 0.00 | 0.00 | 0.00 | 55 | 1016.8 |
| 20260502044800 | 54 | 72 | 8.0 | 13.0 | 0.00 | 0.00 | 0.00 | 57 | 1016.1 |
| 20260502044259 | 54 | 70 | 8.0 | 13.0 | 0.00 | 0.00 | 0.00 | 57 | 1016.5 |
| 20260502043800 | 54 | 92 | 3.0 | 11.0 | 0.00 | 0.00 | 0.00 | 58 | 1016.5 |
| 20260502043300 | 55 | 79 | 6.0 | 12.0 | 0.00 | 0.00 | 0.00 | 58 | 1016.5 |
| 20260502042800 | 55 | 70 | 7.0 | 13.0 | 0.00 | 0.00 | 0.00 | 58 | 1016.5 |
| 20260502042259 | 55 | 64 | 6.0 | 13.0 | 0.00 | 0.00 | 0.00 | 59 | 1016.5 |
| 20260502041759 | 55 | 74 | 8.0 | 13.0 | 0.00 | 0.00 | 0.00 | 59 | 1016.1 |
| 20260502041300 | 55 | 68 | 5.0 | 13.0 | 0.00 | 0.00 | 0.00 | 59 | 1016.1 |
| 20260502040800 | 55 | 64 | 5.0 | 12.0 | 0.00 | 0.00 | 0.00 | 60 | 1016.1 |
| 20260502040300 | 55 | 68 | 4.0 | 13.0 | 0.00 | 0.00 | 0.00 | 61 | 1016.1 |
| 20260502035800 | 55 | 63 | 7.0 | 14.0 | 0.00 | 0.00 | 0.00 | 61 | 1016.1 |
| 20260502035300 | 55 | 63 | 10.0 | 13.0 | 0.00 | 0.00 | 0.00 | 61 | 1015.8 |
| 20260502034759 | 55 | 76 | 7.0 | 12.0 | 0.00 | 0.00 | 0.00 | 62 | 1016.1 |
| 20260502034259 | 55 | 46 | 7.0 | 13.0 | 0.00 | 0.00 | 0.00 | 62 | 1016.1 |
| 20260502033759 | 55 | 49 | 11.0 | 13.0 | 0.00 | 0.00 | 0.00 | 62 | 1016.5 |
| 20260502033259 | 55 | 51 | 9.0 | 13.0 | 0.00 | 0.00 | 0.00 | 63 | 1016.1 |
| 20260502032759 | 56 | 52 | 8.0 | 13.0 | 0.00 | 0.00 | 0.00 | 64 | 1016.1 |
| 20260502032259 | 56 | 46 | 8.0 | 14.0 | 0.00 | 0.00 | 0.00 | 64 | 1016.5 |
| 20260502031759 | 56 | 52 | 9.0 | 14.0 | 0.00 | 0.00 | 0.00 | 65 | 1016.1 |
| 20260502031300 | 56 | 76 | 6.0 | 16.0 | 0.00 | 0.00 | 0.00 | 67 | 1016.1 |
| 20260502030759 | 56 | 58 | 4.0 | 16.0 | 0.00 | 0.00 | 0.00 | 68 | 1016.1 |
| 20260502030259 | 56 | 48 | 7.0 | 12.0 | 0.00 | 0.00 | 0.00 | 69 | 1016.1 |
| 20260502025759 | 56 | 64 | 6.0 | 14.0 | 0.00 | 0.00 | 0.00 | 69 | 1016.1 |
| 20260502025300 | 57 | 35 | 7.0 | 14.0 | 0.00 | 0.00 | 0.00 | 69 | 1016.1 |
| 20260502024759 | 57 | 49 | 8.0 | 14.0 | 0.00 | 0.00 | 0.00 | 69 | 1016.5 |
| 20260502024259 | 57 | 56 | 7.0 | 14.0 | 0.00 | 0.00 | 0.00 | 70 | 1016.5 |
| 20260502023759 | 57 | 45 | 5.0 | 12.0 | 0.00 | 0.00 | 0.00 | 71 | 1016.5 |
| 20260502023300 | 57 | 27 | 7.0 | 12.0 | 0.00 | 0.00 | 0.00 | 72 | 1016.8 |
| 20260502022759 | 57 | 37 | 6.0 | 11.0 | 0.00 | 0.00 | 0.00 | 72 | 1016.5 |
| 20260502022306 | 57 | 56 | 3.0 | 11.0 | 0.00 | 0.00 | 0.00 | 71 | 1016.8 |
| 20260502021759 | 58 | 37 | 6.0 | 11.0 | 0.00 | 0.00 | 0.00 | 71 | 1016.5 |
| 20260502021259 | 58 | 36 | 5.0 | 11.0 | 0.00 | 0.00 | 0.00 | 71 | 1016.5 |
| 20260502020800 | 58 | 27 | 7.0 | 15.0 | 0.00 | 0.00 | 0.00 | 71 | 1016.5 |
| 20260502020259 | 58 | 37 | 10.0 | 15.0 | 0.00 | 0.00 | 0.00 | 72 | 1016.1 |
| 20260502015800 | 58 | 25 | 6.0 | 9.0 | 0.00 | 0.00 | 0.00 | 73 | 1016.1 |
| 20260502015305 | 58 | 22 | 5.0 | 8.0 | 0.00 | 0.00 | 0.00 | 74 | 1015.8 |
| 20260502014759 | 58 | 44 | 4.0 | 8.0 | 0.00 | 0.00 | 0.00 | 74 | 1016.1 |